Location: Borgo
(42.3939°N, 9.2791°E)
Time: 18:07:06
(UTC+00:00)

Cosmos 1812 Rocket - Visible Passes

Search period start: 14 May 2021 00:00
Search period end: 24 May 2021 00:00
Orbit: 606 x 632 km, 82.5° (Epoch: 13 May)

Date Brightness Start Highest point End Pass type
(mag) Time Alt. Az. Time Alt. Az. Time Alt. Az.
14 May 6.9 02:41:57 10° NE 02:43:41 12° ENE 02:45:25 10° E visible
15 May 6.4 02:57:52 10° NNE 03:01:14 21° ENE 03:04:34 10° ESE visible
16 May 5.2 03:14:33 10° N 03:18:39 38° ENE 03:22:42 10° SE visible
18 May 6.7 02:13:01 10° NE 02:14:55 13° ENE 02:16:48 10° E visible
19 May 6.1 02:29:00 10° NNE 02:32:26 22° ENE 02:35:49 10° SE visible
20 May 5.0 02:45:44 10° N 02:49:51 39° ENE 02:53:55 10° SSE visible
21 May 3.8 03:02:47 10° N 03:07:10 75° E 03:11:29 10° SSE visible
22 May 6.5 01:44:04 10° NE 01:46:07 13° ENE 01:48:09 10° E visible
22 May 3.6 03:20:06 10° NNW 03:24:22 57° W 03:28:36 10° S visible
23 May 5.9 02:00:09 10° NNE 02:03:38 23° ENE 02:07:04 10° SE visible
